Regional Weather Roundup
Issued by NWS

Current Version | Previous Version | Text Only | Print | Product List | Glossary On
Versions: 1 2 3 4 5 6 7 8 9 10 11 12 13 14 15 16 17 18 19 20 21 22 23 24 25 26 27
000
ASUS42 KKEY 240810
RWRKEY

FLORIDA REGIONAL WEATHER ROUNDUP FOR THE FLORIDA KEYS
NATIONAL WEATHER SERVICE KEY WEST FLORIDA
400 AM EDT FRI OCT 24 2014

...SOUTH FLORIDA AND THE KEYS...

CITY           SKY/WX    TMP DP  RH WIND       PRES   REMARKS
FORT MYERS     CLEAR     65  58  78 NE10      29.89F
SW REGIONAL AP CLEAR     67  57  70 NE10      29.89F
NAPLES         PTCLDY    71  60  68 NE12      29.86F
MIAMI          CLOUDY    78  69  73 NE10      29.83F
WEST KENDALL   LGT RAIN  78  71  79 NE8       29.83F
HOMESTEAD      LGT RAIN  75  72  88 N17G24    29.82F
MARATHON       CLOUDY    75  75 100 NE16      29.80F
BOCA CHICA NAS CLOUDY    76  72  87 NE12      29.81R
KEY WEST INTL  CLOUDY    77  74  90 NE14G22   29.81S

...INTERNATIONAL WEATHER...

CITY           SKY/WX    TMP DP  RH WIND       PRES   REMARKS
NASSAU BAHAMAS NOT AVBL
CANCUN MEXICO  PTCLDY    73  73 100 NW6       29.80F
COZUMEL MEXICO   N/A    N/A N/A N/A MISG        N/A

ADJACENT COASTAL WATERS...

STATION/POSITION TIME  SKY/WX   TEMP    WIND        PRES    WAVE
                                AIR SEA DIR/SP/G            HT/PER
                 (UTC)          (F)     (DEG/KT/KT) (MB)    (FT/S)
PULASKI SHOAL LI 0700            79      60/ 21/ 24 1010.0F
SAND KEY         0741            77      40/ 18/ 20 1009.2F
SOMBRERO KEY     0800            76      30/ 21/ 23 1008.8F
LONG KEY         0800            76 78   40/ 14/ 16 1009.9F
MOLASSES REEF    0800            79 83   70/ 14/ 16 1009.1F
FOWEY ROCKS      0800            76 79   50/ 18/ 20 1010.1F
Buoy 42080       NOT AVBL

$$



USA.gov is the U.S. government's official web portal to all federal, state and local government web resources and services.